sat.trackr.live / text

‹ back to catalog

STARLINK-37528

NORAD 68904 · 2026-097K

PAYLOAD ACTIVE UNKNOWN

§ Identity

Operator
Country
US
Launch date
2026-04-30
Launch site
AFWTR
Launch vehicle
Mass (kg)
RCS (m²)

Purposes: comms

External: N2YO · Heavens-Above · Gunter

§ Orbital elements

Epoch: 2026-09-19T23:27:10.580256Z

Period
93.91 min
Inclination
97.2847°
Eccentricity
0.0000085
Mean motion
15.33455310 rev/d
Perigee alt
465.5 km
Apogee alt
465.6 km
Semi-major
6,843.6 km
B*
3.7855e-4
RAAN
97.1566°
Arg perigee
192.9538°
Mean anomaly
167.1703°
Rev number
2,201

§ Raw data

STARLINK-375281 68904U 26097K   26262.97720579  .00012170  00000+0  37855-3 0  99962 68904  97.2847  97.1566 0000085 192.9538 167.1703 15.33455310 22010

JSON: /api/v1/satellites/68904 · /tle

For live sub-satellite position, see the globe view (requires WebGL).

§ Visibility from observer

Set your observer location to see the next 7 days of passes ≥ 10°. The values pass through the URL so the page stays shareable.

No JS? Fill the form by hand. The geolocation button needs JavaScript.